User: anonymous   Login
Location: Potomac Astrometric Observatory
(39.0475°N, 77.2064°W)
Time: 00:17:06
(UTC-04:00)
Language:

Envisat - Orbit

View from above orbital plane
View from above orbital plane
View from above satellite
View from above satellite

Ground track
Ground track

The orbit data is extracted from the following two-line orbital elements,

1 27386U 02009A   19112.68875751 -.00000014  00000-0  87431-5 0  9992
2 27386  98.1541 136.6159 0001418  90.0090  19.3989 14.37946479898007
Epoch (UTC): 22 April 2019 16:31:48
Eccentricity: 0.0001418
inclination: 98.1541°
perigee height: 764 km
apogee height: 766 km
right ascension of ascending node: 136.6159°
argument of perigee: 90.0090°
revolutions per day: 14.37946479
mean anomaly at epoch: 19.3989°
orbit number at epoch: 89800

The dashed part of the orbit path shows where the satellite is in the earth's shadow,  

DLR